Location: Emblem
(62.4273°N, 6.4710°E)
Time: 19:17:51
(UTC+02:00)

Vanguard 2 - Pass Details

Date: 10 February 2023
Orbit: 553 x 2927 km, 32.9° (Epoch: 27 March)

Event Time Altitude Azimuth Distance (km) Brightness Sun altitude
Rises 01:41:19 0° 251° (WSW) 6,015 - -41.2°
Reaches altitude 10° 01:49:06 10° 227° (SW) 5,445 - -40.9°
Maximum altitude 01:54:14 12° 208° (SSW) 5,442 - -40.7°
Drops below altitude 10° 01:59:37 10° 190° (S) 5,737 - -40.4°
Sets 02:08:36 0° 166° (SSE) 6,722 - -40.0°
